Tracking 19146 objects as of 25-Apr-2018
HD Live streaming from Space Station
objects crossing your sky now

NOAA 4

Track NOAA 4 now!
10-day predictions
NOAA 4 is classified as:


NORAD ID: 7529
Int'l Code: 1974-089A
Perigee: 1,451.4 km
Apogee: 1,465.8 km
Inclination: 101.7 °
Period: 114.9 minutes
Semi major axis: 7829 km
RCS: 3.1879 m2 (large)
Launch date: November 15, 1974
Source: United States (US)
Launch site: AIR FORCE WESTERN TEST RANGE (AFWTR)
aabbcc
Your satellite tracking list
Your tracking list is empty




NASA's NSSDC Master Catalog

Two Line Element Set (TLE):
1 07529U 74089A   18114.45055167 -.00000026  00000-0  11447-3 0  9998
2 07529 101.6912  82.6823 0009175 135.3828 336.3449 12.53120217987028
Source of the keplerian elements: AFSPC